Overview Statistics Trail Chart Weather Telemetry Raw packets
 

This is the latest recevied weather packets stored in our database for station/object CW79215. If no packets are shown the sender has not sent any weather packets the latest 10 day(s).

<< 8 9 10 11 12 13 14 >>
Time Temp. Humidity Pressure Rain* Wind** Luminosity Snow
1788488441 15° C 73% 1031.9 hPa - - - -
1788487541 15° C 73% 1031.9 hPa - - - -
1788486641 15° C 74% 1031.9 hPa - - - -
1788485741 15° C 72% 1031.9 hPa - - - -
1788484841 15° C 73% 1032 hPa - - - -
1788483941 15.56° C 72% 1032.1 hPa - - - -
1788483041 15.56° C 71% 1032 hPa - - - -
1788482140 15.56° C 70% 1032.2 hPa - - - -
1788481240 16.11° C 70% 1032.3 hPa - - - -
1788480340 16.11° C 69% 1032.5 hPa - - - -
1788479440 16.67° C 67% 1032.4 hPa - - - -
1788478540 16.67° C 67% 1032.5 hPa - - - -
1788477640 16.67° C 66% 1032.4 hPa - - - -
1788476740 17.22° C 65% 1032.5 hPa - - - -
1788475840 17.22° C 65% 1032.4 hPa - - - -
1788474940 17.78° C 64% 1032.4 hPa - - - -
1788474040 18.33° C 62% 1032.5 hPa - - - -
1788473140 17.78° C 64% 1032.4 hPa - - - -
1788472239 18.33° C 63% 1032.4 hPa - - - -
1788471339 18.33° C 62% 1032.3 hPa - - - -
1788470439 18.89° C 60% 1032.4 hPa - - - -
1788469539 19.44° C 59% 1032.4 hPa - - - -
1788468653 18.89° C 61% 1032.4 hPa - - - -
1788467741 19.44° C 57% 1032.4 hPa - - - -
1788466841 20° C 57% 1032.5 hPa - - - -

* Rain since midnight (hover to see other rain measurements)
** Current wind speed in m/s (hover to see current wind gust speed)